Flag for Jordan Weather past 2 weeks in Madaba, Jordan

Now
77 °F

Clear.


Feels Like: 77 °F
Forecast: 56 / 86 °F
Wind: 9 mph from West

Location: Queen Alia Airport

Current Time: Apr 27, 2015 at 7:24:06 PM

Latest Report: Apr 27, 2015 at 7:00 PM


Visibility: 4 mi

Pressure: 29.95 "Hg

Humidity: 18%

Dew point: 30 °F

Location of MadabaLocation

Historic Weather in Madaba — Graph

°F

Madaba temperature yesterday

Maximum temperature yesterday: 82 °F (at 3:00 PM)
Minimum temperature yesterday: 46 °F (at 6:00 AM)
Average temperature yesterday: 66 °F

Past Weeks' High & Low Weather Summary

 TemperatureHumidityPressure
High90 °F (Apr 27, 3:00 PM)100% (Apr 13, 12:00 AM)30.30 "Hg (Apr 13, 12:00 AM)
Low34 °F (Apr 14, 4:00 AM)6% (Apr 20, 3:00 PM)29.83 "Hg (Apr 15, 3:00 PM)
Average58 °F50%30.07 "Hg
* Reported Apr 12 6:00 PM — Apr 27 6:00 PM, Madaba, Weather by CustomWeather, © 2015

Note: Actual official high and low records may vary slightly from our data, if they occured in-between our weather recording intervals... More about our weather records

Advertising

Madaba weather history for previous 24 hours

 ConditionsComfort  
Time TempWeatherWind HumidityBarometerVisibility
6:00 PM
Mon, Apr 27
84 °FClear.12 mph12%29.95 "Hg4 mi
5:00 PM86 °FClear.7 mph11%29.95 "Hg4 mi
4:00 PM86 °FClear.12 mph11%29.98 "Hg4 mi
3:00 PM90 °FClear.12 mph14%29.98 "Hg4 mi
1:00 PM84 °FClear.5 mph10%29.98 "Hg4 mi
12:00 PM82 °FClear.5 mph12%30.01 "Hg4 mi
11:00 AM79 °FClear.3 mph15%30.04 "Hg4 mi
10:00 AM73 °FClear.7 mph16%30.04 "Hg4 mi
9:00 AM70 °FClear.7 mph20%30.01 "Hg4 mi
8:00 AM64 °FClear.9 mph22%30.01 "Hg4 mi
7:00 AM57 °FClear.7 mph29%29.98 "Hg4 mi
6:00 AM55 °FClear.5 mph31%29.98 "Hg5 mi
5:00 AM57 °FClear.5 mph31%29.98 "Hg10 mi
4:00 AM57 °FClear.7 mph31%29.98 "Hg10 mi
2:00 AM54 °FClear.No wind35%30.01 "Hg10 mi
1:00 AM54 °FClear.No wind35%30.01 "Hg10 mi
12:00 AM59 °FClear.3 mph27%30.01 "Hg10 mi
11:00 PM
Sun, Apr 26
61 °FClear.5 mph25%30.01 "Hg10 mi
10:00 PM61 °FClear.7 mph25%30.01 "Hg10 mi
9:00 PM64 °FClear.5 mph21%30.01 "Hg10 mi
8:00 PM66 °FSunny.5 mph21%29.98 "Hg10 mi
7:00 PM73 °FClear.7 mph14%29.98 "Hg5 mi
Weather by CustomWeather, © 2015

See weather overviewHow to use our weather pages